Regional Weather Roundup
Issued by NWS Upton, NY

Current Version | Previous Version | Graphics & Text | Print | Product List | Glossary Off
Versions: 1 2 3 4 5 6 7 8 9 10 11 12 13 14 15 16 17 18 19 20 21 22 23 24 25 26 27

000
ASUS41 KOKX 240909
RWROKX

REGIONAL WEATHER ROUNDUP
NATIONAL WEATHER SERVICE NEW YORK NY
500 AM EDT SAT JUN 24 2017

NOTE: "FAIR" INDICATES FEW OR NO CLOUDS BELOW 12,000 FEET WITH NO
SIGNIFICANT WEATHER AND/OR OBSTRUCTIONS TO VISIBILITY.

NYZ071-072-176-178-NJZ106-104-241000-
NEW YORK CITY METRO AREA

CITY           SKY/WX    TMP DP  RH WIND       PRES   REMARKS
Central Park   CLOUDY    73  71  93 W7        29.63S
Bronx Bot Gard   N/A     73  68  83 SW3       29.61R
LaGuardia APRT CLOUDY    74  71  91 NW9       29.60R
Kennedy INTL   CLOUDY    73  72  96 S6        29.60F
Breezy Point     N/A     68 N/A N/A S5          N/A
Newark/Liberty LGT RAIN  72  71  97 W6        29.60R
Teterboro      LGT RAIN  73  71  93 W7        29.59S
$$

NYZ177-179-078>081-241000-
LONG ISLAND NEW YORK

CITY           SKY/WX    TMP DP  RH WIND       PRES   REMARKS
Jones Beach      N/A     66 N/A N/A S9          N/A
Matinecock PT  NOT AVBL
Farmingdale    NOT AVBL
MacArthur/ISP  CLOUDY    71  70  96 S7        29.60F
Shirley        MOCLDY    71  70  96 S7        29.61F
Mt Sinai Harb    N/A    N/A N/A N/A S7          N/A
Westhampton    CLOUDY    70  66  87 SW9       29.63F
East Hampton   FAIR      71  68  90 SW9       29.61S
Montauk          N/A     72  69  90 SW8       29.62
$$

NYZ052-065-067-241000-
HUDSON VALLEY

CITY           SKY/WX    TMP DP  RH WIND       PRES   REMARKS
White Plains   NOT AVBL
Larchmont Harb   N/A     70 N/A N/A SW9         N/A
Croton O-T Hud   N/A     72 N/A N/A S3          N/A
Newburgh       LGT RAIN  73  72  94 W8        29.61S FOG
Montgomery     LGT RAIN  73  71  93 SW7       29.58R
Poughkeepsie   LGT RAIN  73  70  90 S6        29.55F
Albany         RAIN      72  67  84 W8        29.54R
$$

NJZ001-105-106-008-010-013-015-019>022-104-241000-
NEW JERSEY

CITY           SKY/WX    TMP DP  RH WIND       PRES   REMARKS
Newark/Liberty LGT RAIN  72  71  97 W6        29.60R
Teterboro      LGT RAIN  73  71  93 W7        29.59S
Caldwell       LGT RAIN  73  71  93 S3        29.60F
Somerville     LGT RAIN  72  72 100 CALM      29.58F
Linden         RAIN      73  70  91 NW6       29.61R
Perth Amboy      N/A     73 N/A N/A W5          N/A
Sussex         RAIN      71  71 100 SW3       29.60S
Andover          N/A     70  69  97 CALM      29.61F
Trenton        HVY RAIN  73  72  96 CALM      29.59F FOG
Millville      LGT RAIN  80  75  84 SW5       29.61F
Atlantic City  CLOUDY    75  71  87 S9        29.62F
Wrightstown    CLOUDY    80  72  76 SW15      29.56F
Toms River     CLOUDY    80  73  79 S9        29.61F
Belmar         CLOUDY    80  72  76 S9        29.60F
$$

PAZ047>061-062-071-241000-
EASTERN PENNSYLVANIA

CITY           SKY/WX    TMP DP  RH WIND       PRES   REMARKS
Philadelphia   LGT RAIN  78  73  84 SW15G24   29.58F
Allentown      RAIN      70  68  93 SW5       29.60F
Scranton       LGT RAIN  70  69  97 S6        29.61S
$$

CTZ002-004>006-009-010-012-RIZ004-006-007-MAZ004-011-015-241000-
SOUTHERN NEW ENGLAND
 IN CT

CITY           SKY/WX    TMP DP  RH WIND       PRES   REMARKS
Bradley INTL   CLOUDY    75  71  87 S10       29.56R
Hartford       CLOUDY    76  71  85 SW7       29.56S
Danbury        LGT RAIN  72  71  97 SW6       29.60F
Wtrbury/Oxford CLOUDY    73  66  78 W5        29.61S
Bridgeport     CLOUDY    72  69  90 SW7       29.58F
Meriden        MOCLDY    74  70  87 S5        29.58S
New Haven      NOT AVBL
Chester        FAIR      73  72  94 VRB6      29.59F
Groton         MOCLDY    70  67  90 SW7       29.58S
Wilimantic     LGT RAIN  77  72  84 SW9       29.58R

 IN RI

CITY           SKY/WX    TMP DP  RH WIND       PRES   REMARKS
Providence     PTCLDY    74  72  93 SW12      29.57S
Block Island   CLOUDY    66  65  96 SW13      29.62S FOG
Westerly       MOCLDY    71  68  90 SW9       29.60S
 IN MA

CITY           SKY/WX    TMP DP  RH WIND       PRES   REMARKS
Boston         MOCLDY    71  70  96 S13       29.52S
Worcester      CLOUDY    72  68  87 SW12G24   29.58R
Westfield      CLOUDY    74  72  93 S9          N/A
Provincetown   CLOUDY    68  66  93 SW18G25   29.58S FOG
Nantucket      CLOUDY    66  66 100 SW18G25   29.64S FOG
$$

ANZ330-335-338-340-345-350-353-355-241000-
COASTAL MARINE OBSERVATIONS


STATION/POSITION TIME  SKY/WX   TEMP    WIND        PRES    VSBY  WAVE
                                AIR SEA DIR/SP/G                  HT/PER
                 (UTC)          (F)     (DEG/KT/KT) (MB)    (MI)  (FT/S)
NY HARB ENTRANCE 0750            67 66  200/  8/ 12 1002.8          4/ 7
20 S FIRE ISLAND 0850            71 68  210/ 19/ 21 1002.1          7/ 7
GREAT SOUTH BAY  0745            71 75  240/ 16/ 19   N/A
23 SSW MONTAUK P 0750            69 64              1003.0          7/ 7
15 E BARNEGAT LI 0830               61                N/A           7/ 7
HUDSON CANYON    0750            71 66  210/ 19/ 23 1004.9          7/ 7
KINGS POINT      0842            73 66   CALM  /  4 1001.8
EXECUTION ROCKS  0845            70     180/  6/  8   N/A
CENTRAL LI SOUND 0830            73     210/ 14/ 16   N/A           2
EASTERN LI SOUND NOT AVBL
ROBBINS REEF     0836                   250/  2/  6 1002.5
$$


>>>>>>>>>>>>>>>>>>>>>>>>>>>> KEY <<<<<<<<<<<<<<<<<<<<<<<<<<<
>                                                          <
>     SKY/WX - Sky Condition/Present Weather               <
>     TMP    - Temperature in Fahrenheit                   <
>     DP     - Dew Point in Fahrenheit                     <
>     RH     - Relative Humidity in Percent                <
>     WIND   - Direction (from) and Speed in MPH           <
>     PRES   - Mean Sea Level Pressure (inches of Hg)      <
>     WCI    - Wind Chill Index                            <
>     VSB    - VISIBILITY IN MILES                         <
>     HX     - HEAT INDEX                                  <
>     TC     - TEMPERATURE IN CELSIUS                      <
>     VRB    - VARIABLE WIND DIRECTION                     <
>                                                          <
>>>>>>>>>>>>>>>>>>>>>>>>>>>> KEY <<<<<<<<<<<<<<<<<<<<<<<<<<<




USA.gov is the U.S. government's official web portal to all federal, state and local government web resources and services.